Weather History for Carroll, IA

Change the Weather History Date:

Wednesday, February 13, 2013

  Actual Average Record
Temperature  
Mean Temperature 36 °F -  
Max Temperature 50 °F 34 °F 61 °F (1954)
Min Temperature 23 °F 13 °F -16 °F (1965)
Degree Days  
Heating Degree Days 28    
Moisture  
Dew Point 28 °F    
Average Humidity 74    
Maximum Humidity 93    
Minimum Humidity 43    
Precipitation  
Precipitation 0.00 in - - ()
Sea Level Pressure  
Sea Level Pressure 29.76 in    
Wind  
Wind Speed 10 mph (West)    
Max Wind Speed 21 mph    
Max Gust Speed 24 mph    
Visibility 10 miles    
Events      
Averages and records for this station are not official NWS values.
T = Trace of Precipitation, MM = Missing Value Source: NWS Daily Summary

Daily Weather History Graph

Daily Weather History Graph

Search for Another Location

Airport:

Trip Planner

Search our weather history database for the weather conditions in past years. The results will help you decide how hot, cold, wet, or windy it might be!

Date:

Astronomy

Feb. 13, 2013 Rise Set
Actual Time 7:17 AM CST 5:49 PM CST
Civil Twilight 6:48 AM CST 6:18 PM CST
Nautical Twilight 6:15 AM CST 6:51 PM CST
Astronomical Twilight 5:43 AM CST 7:23 PM CST
Moon 8:42 AM CST (2/13) 9:58 PM CST (2/13)
Length of Visible Light 11h 29m
Length of Day
10h 32m
Waxing Crescent, 14% of the Moon is Illuminated
Feb 13
Waxing Crescent
Feb 17
First Quarter
Feb 25
Full
Mar 4
Last Quarter
Mar 11
New

Hourly Weather History & Observations

Time (CST) Temp. Windchill Dew Point Humidity Pressure Visibility Wind Dir Wind Speed Gust Speed Precip Events Conditions
12:15 AM 26.6 °F 20.0 °F 23.0 °F 86% 29.87 in 10.0 mi WNW 5.8 mph - N/A   Clear
12:35 AM 26.6 °F 20.0 °F 23.0 °F 86% 29.86 in 10.0 mi West 5.8 mph - N/A   Clear
12:55 AM 26.6 °F 20.0 °F 23.0 °F 86% 29.86 in 10.0 mi West 5.8 mph - N/A   Clear
1:15 AM 26.6 °F 19.1 °F 23.0 °F 86% 29.86 in 10.0 mi West 6.9 mph - N/A   Clear
1:35 AM 24.8 °F 16.1 °F 23.0 °F 93% 29.86 in 10.0 mi WNW 8.1 mph - N/A   Clear
1:55 AM 24.8 °F 14.6 °F 23.0 °F 93% 29.86 in 10.0 mi West 10.4 mph - N/A   Clear
2:15 AM 24.8 °F 15.3 °F 23.0 °F 93% 29.85 in 10.0 mi West 9.2 mph - N/A   Clear
2:35 AM 24.8 °F 15.3 °F 23.0 °F 93% 29.85 in 10.0 mi West 9.2 mph - N/A   Clear
2:55 AM 24.8 °F 15.3 °F 23.0 °F 93% 29.84 in 10.0 mi West 9.2 mph - N/A   Clear
3:15 AM 24.8 °F 15.3 °F 23.0 °F 93% 29.84 in 10.0 mi West 9.2 mph - N/A   Clear
3:35 AM 24.8 °F 15.3 °F 21.2 °F 86% 29.83 in 10.0 mi West 9.2 mph - N/A   Clear
3:55 AM 23.0 °F 13.1 °F 21.2 °F 93% 29.83 in 10.0 mi West 9.2 mph - N/A   Clear
4:15 AM 23.0 °F 13.9 °F 21.2 °F 93% 29.83 in 10.0 mi West 8.1 mph - N/A   Clear
4:35 AM 24.8 °F 16.1 °F 21.2 °F 86% 29.82 in 10.0 mi West 8.1 mph - N/A   Clear
4:55 AM 24.8 °F 16.1 °F 23.0 °F 93% 29.82 in 10.0 mi West 8.1 mph - N/A   Clear
5:15 AM 24.8 °F 16.1 °F 23.0 °F 93% 29.81 in 10.0 mi West 8.1 mph - N/A   Clear
5:35 AM 24.8 °F 17.9 °F 23.0 °F 93% 29.80 in 10.0 mi West 5.8 mph - N/A   Clear
6:15 AM 24.8 °F 15.3 °F 21.2 °F 86% 29.80 in 10.0 mi West 9.2 mph - N/A   Clear
6:35 AM 23.0 °F 11.7 °F 21.2 °F 93% 29.81 in 10.0 mi West 11.5 mph - N/A   Clear
6:55 AM 23.0 °F 13.1 °F 21.2 °F 93% 29.81 in 10.0 mi West 9.2 mph - N/A   Clear
7:15 AM 24.8 °F 16.1 °F 23.0 °F 93% 29.81 in 10.0 mi West 8.1 mph - N/A   Clear
7:35 AM 26.6 °F 17.5 °F 23.0 °F 86% 29.81 in 10.0 mi West 9.2 mph - N/A   Clear
7:55 AM 28.4 °F 18.5 °F 24.8 °F 86% 29.81 in 10.0 mi West 11.5 mph - N/A   Partly Cloudy
8:15 AM 28.4 °F 18.5 °F 26.6 °F 93% 29.81 in 10.0 mi West 11.5 mph - N/A   Mostly Cloudy
8:35 AM 28.4 °F 18.5 °F 26.6 °F 93% 29.81 in 10.0 mi West 11.5 mph - N/A   Partly Cloudy
8:55 AM 32.0 °F 22.5 °F 28.4 °F 87% 29.81 in 10.0 mi West 12.7 mph - N/A   Clear
9:15 AM 33.8 °F 24.3 °F 28.4 °F 81% 29.81 in 10.0 mi West 13.8 mph - N/A   Clear
9:35 AM 33.8 °F 26.4 °F 28.4 °F 81% 29.81 in 10.0 mi West 9.2 mph - N/A   Clear
9:55 AM 33.8 °F 25.3 °F 28.4 °F 81% 29.81 in 10.0 mi West 11.5 mph - N/A   Clear
10:15 AM 35.6 °F 27.5 °F 30.2 °F 81% 29.81 in 10.0 mi West 11.5 mph - N/A   Clear
10:35 AM 37.4 °F 29.8 °F 30.2 °F 75% 29.80 in 10.0 mi West 11.5 mph - N/A   Clear
10:55 AM 39.2 °F 32.5 °F 30.2 °F 70% 29.80 in 10.0 mi West 10.4 mph - N/A   Clear
11:15 AM 41.0 °F 33.1 °F 30.2 °F 65% 29.79 in 10.0 mi WSW 15.0 mph - N/A   Clear
11:35 AM 42.8 °F 36.2 °F 30.2 °F 61% 29.79 in 10.0 mi WSW 12.7 mph - N/A   Clear
11:55 AM 42.8 °F 35.8 °F 32.0 °F 66% 29.77 in 10.0 mi SW 13.8 mph 20.7 mph N/A   Clear
12:15 PM 44.6 °F 37.8 °F 32.0 °F 61% 29.76 in 10.0 mi WSW 15.0 mph - N/A   Clear
12:35 PM 46.4 °F 40.1 °F 32.0 °F 57% 29.75 in 10.0 mi SW 15.0 mph 21.9 mph N/A   Clear
12:55 PM 46.4 °F 40.1 °F 32.0 °F 57% 29.74 in 10.0 mi SW 15.0 mph 21.9 mph N/A   Clear
1:15 PM 48.2 °F - 30.2 °F 50% 29.74 in 10.0 mi WSW 17.3 mph - N/A   Clear
1:35 PM 48.2 °F - 30.2 °F 50% 29.73 in 10.0 mi WSW 15.0 mph 24.2 mph N/A   Clear
1:55 PM 48.2 °F - 32.0 °F 54% 29.72 in 10.0 mi WSW 15.0 mph 21.9 mph N/A   Clear
2:15 PM 50.0 °F - 30.2 °F 47% 29.71 in 10.0 mi WSW 19.6 mph - N/A   Partly Cloudy
2:35 PM 50.0 °F - 28.4 °F 43% 29.70 in 10.0 mi West 15.0 mph 21.9 mph N/A   Clear
2:55 PM 50.0 °F - 28.4 °F 43% 29.70 in 10.0 mi WSW 18.4 mph 24.2 mph N/A   Clear
3:15 PM 50.0 °F - 28.4 °F 43% 29.69 in 10.0 mi West 18.4 mph 24.2 mph N/A   Clear
3:35 PM 50.0 °F - 30.2 °F 47% 29.69 in 10.0 mi WSW 20.7 mph - N/A   Partly Cloudy
3:55 PM 48.2 °F - 28.4 °F 46% 29.69 in 10.0 mi WSW 17.3 mph 24.2 mph N/A   Scattered Clouds
4:15 PM 48.2 °F - 30.2 °F 50% 29.69 in 10.0 mi WSW 12.7 mph 19.6 mph N/A   Overcast
4:35 PM 48.2 °F - 30.2 °F 50% 29.68 in 10.0 mi WSW 13.8 mph - N/A   Overcast
4:55 PM 46.4 °F 41.5 °F 32.0 °F 57% 29.68 in 10.0 mi SW 10.4 mph 17.3 mph N/A   Mostly Cloudy
5:15 PM 46.4 °F 41.1 °F 32.0 °F 57% 29.68 in 10.0 mi SW 11.5 mph - N/A   Scattered Clouds
5:35 PM 44.6 °F 39.2 °F 32.0 °F 61% 29.68 in 10.0 mi SW 10.4 mph - N/A   Mostly Cloudy
5:55 PM 44.6 °F 38.8 °F 32.0 °F 61% 29.67 in 10.0 mi SW 11.5 mph - N/A   Overcast
6:15 PM 42.8 °F 37.0 °F 32.0 °F 66% 29.67 in 10.0 mi SSW 10.4 mph - N/A   Overcast
6:35 PM 42.8 °F 35.4 °F 32.0 °F 66% 29.68 in 10.0 mi SW 15.0 mph - N/A   Overcast
6:55 PM 46.4 °F 39.8 °F 30.2 °F 53% 29.67 in 10.0 mi WSW 16.1 mph 21.9 mph N/A   Overcast
7:15 PM 44.6 °F 38.1 °F 30.2 °F 57% 29.67 in 10.0 mi WSW 13.8 mph - N/A   Overcast
7:35 PM 44.6 °F 38.4 °F 32.0 °F 61% 29.67 in 10.0 mi West 12.7 mph - N/A   Overcast
7:55 PM 42.8 °F 36.6 °F 30.2 °F 61% 29.67 in 10.0 mi West 11.5 mph - N/A   Overcast
8:15 PM 41.0 °F 34.3 °F 30.2 °F 65% 29.68 in 10.0 mi West 11.5 mph - N/A   Scattered Clouds
8:35 PM 37.4 °F 30.3 °F 30.2 °F 75% 29.68 in 10.0 mi West 10.4 mph - N/A   Clear
8:55 PM 37.4 °F 31.4 °F 30.2 °F 75% 29.68 in 10.0 mi West 8.1 mph - N/A   Partly Cloudy
9:15 PM 37.4 °F 29.8 °F 30.2 °F 75% 29.68 in 10.0 mi West 11.5 mph - N/A   Clear
9:35 PM 35.6 °F 28.0 °F 30.2 °F 81% 29.68 in 10.0 mi West 10.4 mph - N/A   Clear
9:55 PM 35.6 °F 28.6 °F 30.2 °F 81% 29.69 in 10.0 mi West 9.2 mph - N/A   Clear
10:15 PM 33.8 °F 27.7 °F 28.4 °F 81% 29.69 in 10.0 mi West 6.9 mph - N/A   Clear
10:35 PM 33.8 °F 27.0 °F 28.4 °F 81% 29.70 in 10.0 mi West 8.1 mph - N/A   Clear
10:55 PM 32.0 °F 25.6 °F 28.4 °F 87% 29.70 in 10.0 mi West 6.9 mph - N/A   Clear
11:15 PM 33.8 °F 28.6 °F 28.4 °F 81% 29.71 in 10.0 mi West 5.8 mph - N/A   Clear
11:35 PM 32.0 °F 26.4 °F 28.4 °F 87% 29.72 in 10.0 mi WNW 5.8 mph - N/A   Clear
11:55 PM 32.0 °F 24.8 °F 28.4 °F 87% 29.73 in 10.0 mi West 8.1 mph - N/A   Clear